#timestamp,LO_Frequency,Hit,StdDev 
1459620015.8,286046998.3,N
1459620035.6,286046998.3,N
1459620055.4,286047000.0,N
1459620075.3,286047002.8,Y
1459620095.1,286047000.3,P
1459620115.8,286046998.9,N
1459620135.7,286046999.3,N
1459620155.5,286047001.6,Y
1459620175.3,286047003.1,P
1459620195.2,286047005.3,N
1459620215.9,286047005.1,N
1459620235.7,286047004.1,N
1459620255.6,286047004.1,N
1459620275.4,286047003.2,N
1459620295.2,286047004.8,N
1459620315.1,286047005.2,N
1459620316.0,286047005.2,Y
1459620335.8,286047004.4,P
1459620355.6,286047000.2,N
1459620375.5,286047000.5,N
1459620395.3,286046998.5,N
1459620415.1,286046998.4,N
1459620435.9,286046998.2,N
1459620455.7,286047001.4,N
1459620475.5,286047002.3,N
1459620495.3,286047001.6,N
1459620515.2,286046999.7,N
1459620535.0,286047002.8,N
1459620535.9,286047002.8,N
1459620555.7,286046999.7,N
1459620575.6,286047000.1,N
1459620595.4,286047000.9,N
1459620615.2,286047000.3,N
1459620635.1,286046998.2,N
1459620636.0,286046998.2,N
1459620655.8,286047004.4,N
1459620675.6,286047004.4,N
1459620695.5,286047004.2,N
1459620715.3,286047001.4,N
1459620735.1,286047002.8,N
1459620755.9,286047002.8,N
1459620775.7,286046999.9,N
1459620795.5,286047002.4,N
1459620815.3,286047002.4,N
1459620835.2,286046998.7,N
1459620855.0,286046999.7,N
1459620855.9,286046999.7,N
1459620875.7,286047005.5,N
1459620895.6,286047001.8,N
1459620915.4,286047001.1,N
1459620935.2,286047000.5,N
1459620955.1,286047002.7,N
1459620956.0,286047002.7,N
1459620975.8,286046998.5,N
1459620995.6,286047000.3,N
1459621015.5,286046999.8,N
1459621035.3,286047002.5,N
1459621055.1,286047002.3,N
1459621075.9,286047002.5,N
1459621095.7,286047002.8,N
1459621115.5,286047001.0,N
1459621135.4,286047000.4,N
1459621155.2,286046999.4,N
1459621175.0,286046999.0,N
1459621175.9,286046999.0,N
1459621195.8,286046996.8,N
1459621215.6,286046997.0,N
1459621235.4,286046997.7,N
1459621255.2,286046999.5,N
1459621275.1,286046999.6,N
1459621276.0,286046999.6,N
1459621295.8,286046999.1,N
1459621315.6,286046998.5,N
1459621335.5,286047002.8,N
1459621355.3,286047000.1,N
1459621375.1,286047002.4,N
1459621395.9,286047000.1,N
1459621415.7,286046999.6,N
1459621435.5,286046997.5,N
1459621455.4,286046994.9,N
1459621475.2,286046997.2,N
1459621495.0,286046997.2,N
1459621495.9,286046997.2,N
1459621515.8,286046995.0,N
1459621535.6,286046996.8,N
1459621555.4,286047000.9,N
1459621575.3,286047001.6,N
1459621595.1,286047000.5,N
1459621596.0,286047000.5,N
1459621615.8,286046996.7,N
1459621635.7,286046997.6,N
1459621655.5,286046997.9,N
1459621675.3,286046999.6,N
1459621695.1,286046999.7,N
1459621715.9,286046997.1,N
1459621735.7,286046999.5,N
1459621755.5,286046997.8,N
1459621775.4,286046995.0,N
1459621795.2,286046997.5,N
1459621815.0,286046997.7,N
1459621815.9,286046997.7,N
1459621835.8,286046997.5,N
1459621855.6,286046995.3,N
1459621875.4,286046997.0,N
1459621895.3,286046998.2,N
1459621915.1,286047000.2,N
1459621916.0,286047000.2,N
1459621935.8,286046998.6,N
1459621955.7,286046999.0,N
1459621975.5,286046999.5,N
1459621995.3,286046996.6,N
1459622015.2,286046995.1,N
1459622035.9,286046993.4,Y
1459622055.7,286046997.6,P
1459622075.6,286046997.6,P
1459622095.4,286046996.1,P
1459622115.2,286046995.1,Y
1459622135.1,286046996.6,P
1459622136.0,286046996.6,P
1459622155.8,286046996.7,P
1459622175.6,286046996.7,Y
1459622195.5,286047003.2,P
1459622215.3,286047003.0,N
1459622235.1,286047005.7,N
1459622255.9,286047004.3,N
1459622275.7,286047002.0,N
1459622295.5,286047004.3,N
1459622315.4,286047000.6,N
1459622335.2,286046996.9,N
1459622355.0,286047001.1,N
1459622355.9,286047001.1,N
1459622375.8,286046999.3,N
1459622395.6,286047002.0,N
1459622415.4,286047000.5,N
1459622435.2,286047002.1,N
1459622455.1,286046999.8,N
1459622456.0,286046999.8,N
1459622475.8,286046999.7,N
1459622495.6,286047000.5,N
1459622515.5,286047001.0,N
1459622535.3,286047002.0,N
1459622555.1,286047000.3,N
1459622575.9,286046999.4,N
1459622595.7,286046998.7,N
1459622615.5,286047000.9,N
1459622635.4,286047002.3,N
1459622655.2,286047000.9,N
1459622675.0,286047000.0,N
1459622675.9,286047000.0,N
1459622695.8,286047002.6,N
1459622715.6,286047002.6,N
1459622735.4,286047004.1,N
1459622755.2,286047003.4,N
1459622775.1,286047005.0,N
1459622776.0,286047005.0,N
1459622795.8,286047004.0,N
1459622815.6,286047000.1,N
1459622835.5,286047001.6,N
1459622855.3,286047004.3,N
1459622875.1,286046999.7,N
1459622895.9,286046999.7,N
1459622915.7,286047000.7,N
1459622935.5,286047004.3,N
1459622955.4,286047001.0,N
1459622975.2,286046998.2,N
1459622995.0,286046998.7,N
1459622995.9,286046998.7,N
1459623015.8,286046996.7,N
1459623035.6,286046998.8,N
1459623055.4,286047001.0,N
1459623075.3,286046999.7,N
1459623095.1,286047003.9,N
1459623096.0,286047003.9,N
1459623115.8,286047003.5,N
1459623135.7,286047002.6,N
1459623155.5,286047000.1,N
1459623175.3,286046999.9,N
1459623195.1,286047001.1,N
1459623215.9,286046999.8,N
1459623235.7,286047002.5,N
1459623255.5,286047002.2,N
1459623275.4,286047001.5,N
1459623295.2,286046999.8,N
1459623315.0,286047001.3,N
1459623315.9,286047001.3,N
1459623335.8,286047001.7,N
1459623355.6,286047003.9,N
1459623375.4,286047003.8,N
1459623395.3,286047002.2,N
1459623415.1,286047001.9,N
1459623416.0,286047001.9,N
1459623435.8,286047001.7,N
1459623455.7,286047000.0,N
1459623475.5,286047005.2,N
1459623495.3,286047002.2,N
1459623515.2,286047001.4,N
1459623535.9,286047004.3,N
1459623555.7,286047004.2,N
1459623575.6,286047001.9,N
1459623595.4,286047002.4,N
